Regional Weather Roundup
Issued by NWS

Home | Current Version | Previous Version | Graphics & Text | Print | Product List | Glossary On
Versions: 1 2 3 4 5 6 7 8 9 10 11 12 13 14 15 16 17 18 19 20 21 22 23 24 25 26 27 28 29 30 31 32 33 34 35 36 37 38 39 40 41 42 43 44 45 46 47 48 49 50
000
ASUS44 KMEG 251410
RWRTN
TENNESSEE HOURLY STATE WEATHER ROUNDUP
NATIONAL WEATHER SERVICE MEMPHIS TN
900 AM CDT MON MAY 25 2015

TNZ002-004-019-021-049-052-054-088>092-251500-
WEST TENNESSEE

CITY           SKY/WX    TMP DP  RH WIND       PRES   REMARKS
MEMPHIS INTL   CLOUDY    72  68  88 S7        30.08R
NWS MEMPHIS      N/A     71 N/A N/A MISG        N/A
JACKSON        CLOUDY    70  66  87 SE5       30.11R
DYERSBURG      CLOUDY    70  55  60 CALM      30.09R
PARIS          CLOUDY    66  66 100 SE8       30.12R
LEXINGTON      CLOUDY    66  66 100 SE5       30.13R
$$

TNZ008-025-027-028-033-062-065-066-251500-
NORTH MIDDLE TENNESSEE

CITY           SKY/WX    TMP DP  RH WIND       PRES   REMARKS
NASHVILLE      LGT RAIN  66  64  94 S8        30.20S
CLARKSVILLE    CLOUDY    68  67  96 SE7       30.15R
SMYRNA         CLOUDY    69  64  84 W9        30.21R
COOKEVILLE     PTSUNNY   73  63  68 S12       30.21S
CROSSVILLE     SUNNY     70  58  65 S14G25    30.27S
$$

TNZ061-075-076-078-094-096-097-251500-
SOUTH MIDDLE TENNESSEE

CITY           SKY/WX    TMP DP  RH WIND       PRES   REMARKS
FAYETTEVILLE   PTSUNNY  N/A N/A N/A MISG      30.20R
TULLAHOMA      SUNNY     72  61  68 SE9       30.22R
WINCHESTER     PTSUNNY   72  61  68 S13       30.22R
MCMINNVILLE    CLOUDY    75  61  60 SW6       30.22R
COLUMBIA       CLOUDY    66  66 100 SE5       30.17S
SHELBYVILLE    PTSUNNY   73  63  68 S8        30.21R
$$

TNZ017-018-042-046-047-251500-
NORTHEAST TENNESSEE

CITY           SKY/WX    TMP DP  RH WIND       PRES   REMARKS
TRI CITIES     MOSUNNY   74  55  51 SE6       30.29S
ELIZABETHTON   SUNNY     72  55  56 E3        30.30S
$$

TNZ012-013-036-069-073-074-251500-
CENTRAL EAST TENNESSEE

CITY           SKY/WX    TMP DP  RH WIND       PRES   REMARKS
KNOXVILLE      MOSUNNY   75  55  49 S5        30.25S
OAK RIDGE        N/A     75  59  57 VRB3      30.28R
GATLINBURG     SUNNY     73  57  56 CALM      30.26S
MORRISTOWN     SUNNY     75  57  53 SW3       30.28S
$$

TNZ083-085-099-251500-
SOUTHEAST TENNESSEE

CITY           SKY/WX    TMP DP  RH WIND       PRES   REMARKS
CHATTANOOGA    CLOUDY    71  62  73 S12       30.26S
$$

SKY/WX REPORTED AS FAIR MEANS FEW OR NO CLOUDS BELOW
12 THOUSAND FEET.



USA.gov is the U.S. government's official web portal to all federal, state and local government web resources and services.